Wind_Speed
1 1 1 1 1 1 1 1 1 1 1 2 2 2 2 2 3 4 4 4 4 4 5 5 6 5 5 6 6 6 5 5 4 5 5 5 5 5 5 5 5 5 5
1 2 1 1 1 0 0 1 2 2 2 2 2 3 3 3 4 4 4 5 5 5 6 6 6 6 6 6 6 6 6 6 5 4 4 5 5 4 5 4 4 5 5
2 2 2 1 1 1 2 2 3 3 3 3 4 3 3 4 4 5 5 5 6 6 6 6 6 6 6 6 6 6 6 5 5 6 6 6 5 5 5 5 5 5 5
3 2 3 2 3 3 3 4 4 4 5 5 5 4 4 4 5 6 6 6 7 6 6 6 6 7 7 7 7 7 7 6 7 6 7 7 6 7 7 7 6 6 6
2 2 3 3 3 4 4 4 5 5 6 6 6 5 6 6 6 6 7 7 7 7 7 7 8 7 7 7 7 7 7 6 7 7 7 7 8 8 8 8 7 7 7
1 3 3 4 4 5 6 6 6 5 5 6 7 7 7 7 7 7 7 7 8 8 8 8 8 8 8 8 9 9 8 8 8 8 8 8 8 8 8 8 8 8 8
2 3 4 5 6 6 6 7 7 7 6 6 7 7 8 8 7 8 7 8 8 8 8 8 8 9 9 9 9 10 10 9 9 9 9 9 9 9 9 8 9 8 8
3 3 4 5 6 7 7 7 7 7 7 8 8 8 8 8 8 8 8 8 8 8 8 8 9 9 9 10 10 10 10 10 10 9 9 9 10 9 9 9 8 9 9
3 4 4 5 6 6 7 7 7 7 8 8 8 8 8 8 9 9 8 8 9 9 9 9 9 9 9 9 10 11 11 11 10 10 10 10 10 10 10 10 10 10 10
4 5 5 5 5 5 5 5 6 7 7 8 8 8 9 9 9 9 8 8 9 9 9 9 9 10 9 9 10 11 11 11 11 11 11 11 11 11 10 11 11 12 12
5 5 5 5 5 4 4 4 5 6 7 7 7 8 8 9 9 9 9 9 9 9 9 9 9 10 10 9 9 10 10 11 11 11 11 11 11 11 10 10 11 12 12
5 5 5 5 5 5 5 5 5 6 7 7 7 8 8 9 9 9 9 9 9 9 9 9 10 10 10 10 10 10 10 11 11 11 11 11 11 11 10 10 11 12 12
5 6 6 6 6 6 6 6 6 7 7 7 8 8 8 9 9 9 9 9 10 11 11 10 11 10 10 10 11 11 11 11 12 11 11 11 11 12 11 10 10 11 12
6 6 7 7 7 7 7 7 7 7 7 7 8 9 9 9 10 10 9 10 11 11 11 11 12 12 12 12 12 12 12 13 13 12 11 11 11 11 12 12 12 12 12
7 7 8 8 8 8 8 8 8 8 8 8 9 9 9 10 10 10 10 10 10 11 12 12 12 13 13 14 15 15 14 14 14 13 13 13 12 12 12 12 12 12 13
8 8 8 8 8 8 8 8 8 9 9 9 9 9 9 10 10 10 10 10 11 11 11 12 12 12 13 13 14 15 15 14 14 14 14 13 13 13 13 14 14 14 13
8 8 8 8 8 8 8 9 9 10 10 10 10 10 10 10 10 10 10 10 10 11 11 11 12 12 13 14 14 14 14 14 14 14 14 14 14 14 14 14 14 14 13
8 8 8 8 9 9 9 9 9 9 10 10 10 10 10 10 10 10 10 11 11 12 12 12 13 13 13 14 14 14 13 14 14 14 15 14 14 14 14 14 14 14 14
8 8 8 9 9 9 10 10 10 10 10 10 10 11 11 11 11 11 11 12 12 13 13 14 14 14 14 14 14 14 14 14 15 15 15 15 15 15 15 15 15 15 15
8 9 9 10 10 10 10 11 11 11 11 11 11 11 11 11 12 12 12 13 13 14 14 14 14 14 14 14 15 15 15 15 16 16 16 17 17 17 17 17 17 17 17
9 9 9 10 11 11 11 11 11 12 11 11 12 12 12 12 13 13 14 14 15 15 15 15 15 14 15 15 16 16 16 16 17 17 18 17 18 18 18 18 18 18 18
10 10 10 11 12 12 12 12 12 12 12 13 13 13 13 14 14 14 14 14 15 15 16 16 16 15 16 16 17 17 17 17 17 18 18 18 18 19 19 19 19 19 19
10 11 11 12 13 13 13 13 13 13 14 14 14 14 14 14 14 15 16 16 16 16 16 17 17 17 17 17 17 17 17 17 17 18 18 18 18 18 18 19 19 20 20
12 12 12 13 14 14 14 15 14 14 14 15 15 15 15 16 15 16 16 17 17 17 17 17 17 17 17 18 17 17 18 18 17 17 18 19 19 19 19 19 20 20 20
13 13 13 14 14 15 15 16 16 15 15 16 16 16 16 17 16 16 17 17 17 17 18 18 18 18 18 18 18 18 18 18 18 17 18 19 19 19 20 20 20 20 20
13 14 14 15 15 15 16 16 16 16 16 16 16 16 17 17 16 16 17 18 18 18 18 18 19 19 18 19 19 20 19 19 19 18 18 19 19 19 19 20 20 20 20
Wind_Direction
148 145 151 136 104 101 148 198 278 280 264 253 244 247 256 263 267 269 269 266 265 266 265 271 272 269 270 271 268 264 268 283 273 266 266 266 261 262 260 265 269 269 273
213 193 201 176 143 131 221 238 248 252 252 249 240 243 255 271 280 275 274 272 268 267 269 271 270 272 271 271 268 269 270 279 280 264 258 257 259 265 271 267 269 264 270
236 234 241 252 255 261 265 258 254 257 254 250 247 253 265 272 274 280 278 276 272 270 270 269 270 266 268 271 270 272 274 276 275 274 267 265 265 268 268 261 269 273 274
233 233 250 269 271 268 273 271 266 261 256 255 255 258 269 275 275 278 276 277 276 272 271 268 266 265 267 270 274 279 278 274 273 273 271 272 271 268 263 266 272 273 275
226 236 254 270 284 285 285 283 270 265 258 252 255 259 269 274 274 275 275 278 277 270 272 269 267 263 265 271 273 279 277 271 271 268 272 275 274 272 266 270 273 272 271
272 275 273 278 280 277 276 273 268 264 263 256 257 264 273 275 274 276 275 276 276 274 272 272 270 266 269 267 271 275 273 275 275 272 272 274 277 277 271 270 268 268 271
295 284 276 278 278 275 273 267 266 264 265 261 264 269 275 276 275 275 277 278 276 277 276 275 273 271 268 267 270 273 272 273 274 269 271 273 273 275 270 268 268 268 272
296 295 288 284 285 282 271 261 260 261 264 267 270 273 278 278 276 276 280 281 280 280 280 279 277 273 268 270 273 273 273 274 273 270 271 271 271 271 269 268 268 268 268
293 292 293 294 296 289 276 259 253 257 263 268 272 276 281 283 282 281 283 285 283 283 283 282 280 278 277 275 276 275 274 275 271 270 272 273 273 272 270 268 268 267 266
300 295 292 297 302 301 283 257 254 261 265 269 274 277 282 283 284 284 285 287 286 285 285 287 285 280 276 277 278 277 275 274 274 273 275 276 276 276 274 271 267 263 262
294 297 297 299 304 302 287 268 267 269 271 271 276 276 279 284 286 286 288 287 288 288 286 288 284 280 278 277 279 282 280 277 279 280 277 275 274 273 272 273 271 264 262
289 291 293 296 295 295 287 278 274 277 276 276 277 278 283 285 286 285 286 288 288 287 285 282 280 277 277 276 275 279 282 281 280 279 278 273 270 270 273 270 265 263 263
287 285 285 289 288 289 287 284 278 278 280 282 283 284 285 288 288 286 283 284 284 284 284 281 282 277 277 277 277 280 282 284 283 280 279 273 273 273 271 268 264 263 261
285 283 282 287 290 289 288 287 286 283 283 284 284 286 287 288 289 291 289 284 284 283 283 282 281 279 281 282 282 283 282 283 283 281 282 279 277 278 276 273 273 271 269
284 284 286 288 288 289 290 290 290 287 285 285 287 290 290 290 294 294 293 290 287 286 283 283 281 281 283 285 287 287 282 282 285 284 284 282 280 278 280 281 278 278 273
283 283 283 285 284 285 287 289 292 291 287 286 287 289 292 295 296 298 296 293 290 287 285 285 284 284 284 286 286 285 286 283 284 284 283 281 280 277 280 280 279 279 279
282 279 279 281 280 279 280 282 286 289 288 287 286 289 291 294 296 297 295 293 292 289 289 290 288 287 286 287 287 283 281 280 281 278 278 275 273 273 276 278 277 275 277
282 279 278 281 284 284 282 285 286 289 289 286 287 290 292 294 296 297 294 295 295 294 293 294 292 292 293 293 291 287 281 281 279 277 280 278 276 275 275 275 274 273 275
282 283 282 282 284 283 285 287 287 287 290 289 288 290 290 291 292 294 294 295 295 296 296 298 297 296 296 295 293 290 286 281 279 280 282 280 277 277 276 273 272 272 272
281 283 281 281 284 284 285 287 286 288 290 293 292 291 289 289 291 293 294 294 295 295 296 297 299 298 297 295 293 290 288 286 283 281 282 281 278 276 276 274 272 271 271
276 280 284 283 286 287 290 289 287 289 291 293 292 290 289 290 290 290 291 292 294 296 297 298 299 298 296 294 292 290 288 288 285 282 281 280 278 275 275 275 273 271 270
276 278 283 286 287 290 291 291 292 291 291 291 291 290 290 291 291 290 289 291 294 296 297 299 298 297 295 294 292 289 288 286 284 282 281 279 277 274 274 273 272 271 271
275 279 283 286 286 286 287 289 290 291 290 289 290 291 290 290 289 289 288 289 291 293 296 296 296 296 295 293 291 290 287 286 287 286 284 280 277 274 273 272 272 273 275
274 277 281 284 286 286 286 286 287 287 288 290 289 288 289 290 290 290 289 290 290 291 293 294 295 295 294 292 291 289 287 286 286 286 284 281 277 272 270 271 273 273 275
274 275 279 284 286 285 284 285 286 286 287 288 287 287 288 289 288 288 290 291 292 291 292 292 293 294 293 292 291 290 290 288 287 287 285 282 278 273 269 270 271 273 274
275 276 278 282 286 286 287 286 286 287 287 288 288 288 289 289 288 288 289 290 290 291 292 292 291 292 293 292 291 290 290 288 287 287 286 283 279 276 274 271 271 273 275
Height
5873 5872 5873 5873 5873 5874 5874 5874 5874 5874 5874 5874 5874 5874 5874 5874 5874 5874 5873 5873 5873 5872 5872 5871 5871 5871 5871 5870 5870 5869 5869 5869 5869 5868 5867 5868 5867 5867 5867 5867 5867 5867 5867
5872 5872 5872 5872 5873 5873 5873 5874 5874 5874 5874 5874 5874 5874 5874 5874 5874 5873 5873 5872 5872 5871 5871 5870 5870 5870 5870 5869 5869 5869 5869 5868 5868 5867 5866 5867 5866 5866 5866 5866 5866 5866 5865
5870 5871 5872 5872 5872 5873 5873 5873 5873 5873 5874 5873 5873 5873 5873 5873 5873 5872 5872 5871 5871 5870 5870 5870 5869 5869 5868 5868 5868 5868 5867 5867 5867 5867 5866 5865 5865 5865 5865 5865 5865 5865 5864
5869 5870 5871 5872 5872 5872 5872 5872 5873 5873 5873 5873 5872 5872 5872 5872 5872 5871 5871 5870 5869 5869 5869 5869 5868 5868 5867 5867 5867 5866 5866 5866 5866 5865 5865 5864 5864 5864 5864 5864 5864 5863 5863
5868 5870 5870 5871 5871 5871 5871 5871 5871 5871 5872 5872 5871 5871 5871 5871 5871 5870 5870 5869 5868 5868 5868 5867 5867 5866 5866 5866 5866 5865 5865 5864 5864 5864 5864 5863 5863 5863 5863 5862 5862 5862 5862
5868 5869 5869 5870 5870 5870 5870 5870 5870 5870 5870 5870 5870 5870 5870 5870 5869 5869 5868 5868 5868 5867 5866 5866 5865 5865 5865 5864 5864 5864 5863 5863 5863 5863 5862 5862 5861 5861 5861 5861 5861 5860 5860
5868 5868 5869 5869 5868 5867 5867 5867 5868 5869 5869 5869 5869 5869 5869 5869 5868 5868 5867 5867 5866 5866 5865 5864 5864 5864 5863 5863 5863 5862 5862 5861 5861 5861 5860 5860 5860 5859 5859 5859 5859 5858 5858
5868 5868 5868 5867 5866 5864 5863 5864 5865 5867 5867 5868 5868 5868 5868 5867 5866 5866 5866 5865 5865 5864 5863 5863 5862 5862 5862 5861 5861 5860 5860 5860 5859 5859 5858 5858 5858 5857 5857 5857 5856 5856 5856
5867 5867 5866 5865 5863 5860 5858 5860 5863 5865 5866 5866 5866 5866 5866 5866 5865 5864 5864 5864 5863 5862 5862 5861 5861 5860 5860 5859 5859 5858 5858 5858 5857 5857 5856 5856 5856 5855 5855 5855 5854 5854 5854
5867 5866 5866 5864 5862 5859 5857 5858 5861 5863 5864 5864 5864 5865 5864 5864 5863 5863 5862 5862 5861 5860 5860 5860 5859 5858 5858 5857 5856 5856 5856 5855 5855 5855 5854 5854 5853 5853 5852 5852 5851 5851 5851
5866 5865 5865 5864 5863 5861 5860 5860 5861 5862 5863 5863 5863 5863 5863 5862 5862 5861 5861 5860 5859 5859 5858 5858 5857 5856 5856 5855 5854 5854 5853 5853 5853 5852 5852 5851 5851 5850 5850 5849 5848 5848 5848
5865 5865 5864 5864 5863 5862 5861 5861 5861 5861 5861 5861 5861 5861 5861 5860 5860 5859 5859 5858 5858 5857 5857 5856 5855 5854 5854 5853 5852 5851 5851 5851 5850 5850 5849 5849 5848 5848 5847 5847 5846 5845 5845
5864 5864 5863 5863 5862 5862 5861 5861 5860 5860 5860 5860 5860 5859 5859 5858 5858 5857 5857 5856 5856 5855 5855 5854 5853 5852 5852 5851 5850 5849 5849 5848 5847 5847 5846 5846 5845 5844 5844 5844 5843 5843 5842
5863 5863 5862 5862 5861 5861 5860 5860 5859 5859 5859 5858 5858 5857 5857 5857 5856 5855 5855 5854 5853 5853 5852 5851 5850 5850 5849 5848 5847 5847 5846 5845 5845 5844 5844 5843 5842 5842 5841 5841 5841 5840 5840
5861 5861 5861 5860 5860 5859 5859 5859 5858 5857 5857 5856 5856 5856 5855 5855 5854 5853 5853 5852 5851 5850 5849 5848 5848 5847 5846 5845 5844 5844 5843 5842 5842 5841 5840 5840 5839 5839 5838 5838 5838 5837 5837
5860 5859 5859 5859 5858 5858 5858 5857 5856 5855 5855 5854 5854 5853 5853 5852 5852 5851 5850 5849 5848 5847 5846 5846 5845 5844 5843 5842 5841 5840 5839 5839 5838 5838 5837 5836 5836 5836 5835 5835 5834 5834 5834
5858 5858 5857 5857 5856 5856 5856 5855 5854 5854 5853 5852 5852 5851 5850 5850 5849 5848 5848 5847 5846 5845 5844 5843 5842 5841 5840 5839 5838 5837 5836 5835 5835 5834 5833 5833 5832 5832 5832 5831 5831 5830 5830
5856 5856 5856 5855 5854 5854 5853 5853 5852 5851 5851 5850 5849 5849 5848 5847 5846 5846 5845 5844 5843 5842 5841 5840 5838 5837 5836 5835 5834 5833 5832 5831 5831 5830 5829 5828 5828 5828 5828 5827 5827 5827 5826
5854 5854 5853 5853 5852 5852 5851 5851 5850 5849 5848 5848 5847 5846 5845 5845 5844 5843 5842 5841 5840 5839 5838 5837 5835 5834 5833 5832 5830 5829 5828 5827 5827 5826 5825 5824 5824 5824 5823 5823 5823 5823 5823
5852 5852 5851 5851 5850 5849 5849 5848 5848 5847 5846 5845 5844 5843 5843 5842 5841 5840 5839 5838 5837 5836 5834 5833 5832 5830 5829 5828 5827 5825 5824 5823 5822 5821 5821 5820 5819 5819 5819 5818 5818 5818 5818
5849 5849 5848 5848 5848 5847 5846 5846 5845 5844 5843 5842 5841 5840 5840 5839 5838 5837 5836 5835 5834 5832 5831 5830 5828 5827 5825 5824 5822 5821 5820 5819 5818 5817 5816 5815 5815 5814 5814 5814 5813 5813 5813
5847 5846 5846 5845 5845 5844 5843 5843 5842 5841 5840 5839 5838 5837 5836 5835 5834 5833 5832 5831 5830 5829 5827 5826 5824 5823 5821 5819 5818 5817 5816 5815 5813 5812 5811 5810 5809 5809 5809 5809 5808 5808 5808
5844 5844 5843 5843 5842 5841 5841 5840 5839 5838 5837 5836 5835 5833 5832 5831 5830 5829 5828 5827 5826 5825 5823 5822 5820 5818 5817 5815 5814 5813 5811 5810 5808 5807 5805 5804 5804 5804 5803 5803 5803 5802 5802
5841 5840 5840 5839 5839 5838 5837 5836 5835 5834 5833 5832 5831 5830 5828 5827 5826 5825 5824 5823 5822 5820 5819 5817 5816 5814 5812 5810 5809 5808 5807 5805 5804 5803 5801 5799 5799 5798 5798 5798 5797 5797 5796
5837 5837 5836 5836 5835 5834 5833 5833 5832 5830 5829 5828 5827 5826 5825 5823 5822 5821 5820 5819 5817 5816 5814 5813 5811 5809 5808 5806 5804 5803 5801 5799 5798 5797 5796 5794 5793 5793 5792 5792 5792 5791 5790
5833 5833 5832 5832 5831 5830 5829 5829 5827 5826 5825 5824 5822 5821 5820 5819 5818 5817 5815 5814 5813 5811 5809 5808 5806 5804 5803 5801 5799 5798 5797 5795 5793 5791 5790 5789 5788 5787 5786 5786 5785 5785 5784